Weather History for Sisseton, SD

Change the Weather History Date:

Tuesday, October 30, 2012

  Actual Average Record
Temperature  
Mean Temperature 39 °F 40 °F  
Max Temperature 46 °F 50 °F 78 °F (1950)
Min Temperature 31 °F 30 °F 9 °F (1984)
Degree Days  
Heating Degree Days 26 25  
Month to date heating degree days 606 557  
Since 1 July heating degree days 853 802  
Cooling Degree Days 0 0  
Month to date cooling degree days 0 0  
Year to date cooling degree days 712 523  
Moisture  
Dew Point 29 °F    
Average Humidity 67    
Maximum Humidity 89    
Minimum Humidity 45    
Precipitation  
Precipitation 0.00 in 0.05 in 1.11 in (1971)
Month to date precipitation 2.06 2.04  
Year to date precipitation 16.50 21.32  
Snow  
Snow 0.00 in - - ()
Month to date snowfall T  
Since 1 July snowfall T  
Snow Depth 0.00 in    
Sea Level Pressure  
Sea Level Pressure 30.15 in    
Wind  
Wind Speed 10 mph (South)    
Max Wind Speed 18 mph    
Max Gust Speed 23 mph    
T = Trace of Precipitation, MM = Missing Value Source: NWS Daily Summary

Daily Weather History Graph

Daily Weather History Graph

Search for Another Location

Airport:

Trip Planner

Search our weather history database for the weather conditions in past years. The results will help you decide how hot, cold, wet, or windy it might be!

Date:

Astronomy

Oct. 30, 2012 Rise Set
Actual Time 8:05 AM CDT 6:16 PM CDT
Civil Twilight 7:34 AM CDT 6:47 PM CDT
Nautical Twilight 6:59 AM CDT 7:22 PM CDT
Astronomical Twilight 6:25 AM CDT 7:57 PM CDT
Moon 6:42 PM CDT (10/30) 8:57 AM CDT (10/30)
Length of Visible Light 11h 12m
Length of Day
10h 11m
Full, 99% of the Moon is Illuminated
Oct 30
Full
Nov 6
Last Quarter
Nov 13
New
Nov 20
First Quarter
Nov 28
Full

Hourly Weather History & Observations

Time (CDT) Temp. Windchill Dew Point Humidity Pressure Visibility Wind Dir Wind Speed Gust Speed Precip Events Conditions
12:56 AM 37.0 °F 31.0 °F 30.9 °F 79% 30.18 in - South 8.1 mph - N/A   Unknown
1:56 AM 36.0 °F 29.6 °F 30.9 °F 82% 30.16 in - SSE 8.1 mph - N/A   Unknown
2:56 AM 36.0 °F 28.0 °F 30.0 °F 79% 30.17 in - South 11.5 mph - N/A   Unknown
3:56 AM 36.0 °F 29.0 °F 30.0 °F 79% 30.16 in - South 9.2 mph - N/A   Unknown
4:56 AM 36.0 °F 29.0 °F 30.0 °F 79% 30.16 in - South 9.2 mph - N/A   Unknown
5:56 AM 35.1 °F 26.9 °F 30.0 °F 82% 30.16 in - SSE 11.5 mph - N/A   Unknown
6:56 AM 35.1 °F 27.4 °F 30.0 °F 82% 30.17 in - South 10.4 mph - N/A   Unknown
7:56 AM 35.1 °F 25.9 °F 30.9 °F 85% 30.16 in - South 13.8 mph - N/A   Unknown
8:56 AM 35.1 °F 26.9 °F 30.9 °F 85% 30.17 in - SSE 11.5 mph - N/A   Unknown
9:56 AM 36.0 °F 28.5 °F 32.0 °F 86% 30.17 in - South 10.4 mph - N/A   Unknown
10:56 AM 37.9 °F 30.5 °F 30.9 °F 76% 30.18 in - South 11.5 mph - N/A   Unknown
11:56 AM 42.1 °F 34.2 °F 30.9 °F 65% 30.17 in - South 16.1 mph - N/A   Unknown
12:56 PM 44.1 °F 36.8 °F 30.0 °F 58% 30.17 in - South 16.1 mph 21.9 mph N/A   Unknown
1:56 PM 44.1 °F 37.1 °F 28.0 °F 53% 30.16 in - South 15.0 mph - N/A   Unknown
2:56 PM 45.0 °F 38.2 °F 26.1 °F 48% 30.14 in - SSE 15.0 mph - N/A   Unknown
3:56 PM 46.0 °F 39.9 °F 26.1 °F 46% 30.13 in - SSE 13.8 mph - N/A   Unknown
4:56 PM 44.1 °F 37.7 °F 26.1 °F 49% 30.12 in - SSE 12.7 mph - N/A   Unknown
5:56 PM 42.1 °F 36.1 °F 26.1 °F 53% 30.12 in - SSE 10.4 mph - N/A   Unknown
6:56 PM 39.0 °F 34.8 °F 26.1 °F 60% 30.13 in - SSE 5.8 mph - N/A   Unknown
7:56 PM 37.9 °F 34.4 °F 27.0 °F 65% 30.13 in - South 4.6 mph - N/A   Unknown
8:56 PM 34.0 °F 28.8 °F 26.1 °F 73% 30.11 in - South 5.8 mph - N/A   Unknown
9:56 PM 30.9 °F 27.5 °F 26.1 °F 82% 30.12 in - SW 3.5 mph - N/A   Unknown
10:56 PM 34.0 °F - 27.0 °F 75% 30.13 in - Calm Calm - N/A   Unknown
11:56 PM 37.0 °F 32.4 °F 28.0 °F 70% 30.10 in - South 5.8 mph - N/A   Unknown